Location: Bucharest
(44.4268°N, 26.1025°E)
Time: 19:55:58
(UTC+02:00)

ISS - Visible Passes

Search period start: 24 January 2022 00:00
Search period end: 03 February 2022 00:00
Orbit: 413 x 422 km, 51.6° (Epoch: 24 January)

Date Brightness Start Highest point End Pass type
(mag) Time Alt. Az. Time Alt. Az. Time Alt. Az.
24 Jan -1.8 19:18:45 10° WNW 19:20:53 22° NNW 19:20:53 22° NNW visible
25 Jan -2.2 18:30:27 10° WNW 18:33:20 26° N 18:34:49 19° NNE visible
26 Jan -2.5 17:42:08 10° W 17:45:09 30° NNW 17:48:10 10° NE visible
26 Jan -1.7 19:19:49 10° NW 19:21:41 21° NNW 19:21:41 21° NNW visible
27 Jan -2.1 18:31:38 10° NW 18:34:21 23° N 18:35:37 18° NNE visible
28 Jan -1.9 19:20:35 10° NW 19:22:29 24° NNW 19:22:29 24° NNW visible
29 Jan -2.3 18:32:29 10° NW 18:35:20 25° N 18:36:28 21° NE visible
29 Jan -0.4 20:09:10 10° WNW 20:09:23 12° NW 20:09:23 12° NW visible
30 Jan -2.6 19:21:07 10° NW 19:23:25 35° NNW 19:23:25 35° NNW visible
31 Jan -3.0 18:33:04 10° NW 18:36:12 35° NNE 18:37:30 25° ENE visible
31 Jan -0.6 20:09:49 10° WNW 20:10:26 14° WNW 20:10:26 14° WNW visible
01 Feb -3.5 19:21:39 10° WNW 19:24:37 65° W 19:24:37 65° W visible
02 Feb -3.8 18:33:32 10° NW 18:36:52 69° NNE 18:38:55 21° ESE visible
02 Feb -0.6 20:10:57 10° W 20:11:53 14° WSW 20:11:53 14° WSW visible
